Terminal Aerodrome Forecast
Issued by NWS

Home | Current Version | Previous Version | Graphics & Text | Print | Product List | Glossary On
Versions: 1 2 3 4 5 6 7 8 9 10 11 12 13 14 15 16 17 18 19 20 21 22 23 24 25 26 27 28 29 30
000
FTUS42 KMHX 311340 AAA
TAFPGV
TAF AMD
KPGV 311340Z 3114/0112 VRB05KT P6SM SHRA BKN035 OVC070
      TEMPO 3114/3115 2SM SHRA
     FM312000 15005KT P6SM VCSH BKN030
      TEMPO 0102/0106 4SM BR BKN010
     FM010600 00000KT 1SM BR OVC003
      AMD LTD TO CLD VIS AND WIND=

USA.gov is the U.S. government's official web portal to all federal, state and local government web resources and services.